EW6014 Hilton Head Island SC US current weather conditions

sailwx.info

Wind from 022 at 2 knots gusting 6

Air temperature 8.3° C
Dewpoint 6.6° C

Last reported at 2020-Jan-25 14:03 UTC.
Time now 2020-Jan-25 15:08 UTC

Location: N 32°09' W 080°48'.
View on Google Maps.

See reports from other nearby stations

  
Tides and Currents Weather Stations Pressure Air Temp Water Temp Dewpoint Dewpoint Depression Visibility Wind Speed Wind Dir Waves Ship Positions
date/time (UTC)wind fromknots sea level pressurealtimeterstation pressurevisibilityair tempwater tempwave heightnotes
2020-Jan-25 14:03 022 2 gusting 6 8.3
2020-Jan-25 13:46 022 1 gusting 6 8.3
2020-Jan-25 13:32 022 2 gusting 6 8.3
2020-Jan-25 13:16 020 8.3
2020-Jan-25 13:01 020 8.3
2020-Jan-25 12:47 020 8.3
2020-Jan-25 12:31 020 8.3
2020-Jan-25 12:15 020 8.3
2020-Jan-25 12:01 020 8.3
2020-Jan-25 11:46 020 8.9
2020-Jan-25 11:31 020 8.9
2020-Jan-25 11:15 020 8.9
2020-Jan-25 11:01 020 9.4
2020-Jan-25 10:45 020 9.4
2020-Jan-25 10:30 020 10.0
2020-Jan-25 10:16 020 10.0
2020-Jan-25 10:00 020 10.0
2020-Jan-25 09:46 020 10.6
2020-Jan-25 09:31 020 10.6
2020-Jan-25 09:15 020 11.1
2020-Jan-25 09:00 020 11.1
2020-Jan-25 08:46 020 11.1
2020-Jan-25 08:31 020 11.7
2020-Jan-25 08:16 020 0 gusting 4 12.2
2020-Jan-25 08:00 019 0 gusting 5 12.2
2020-Jan-25 07:45 019 0 gusting 5 12.8
2020-Jan-25 07:30 018 0 gusting 3 13.3
2020-Jan-25 07:15 093 13.9
2020-Jan-25 07:00 121 14.4
2020-Jan-25 06:48 125 14.4
2020-Jan-25 06:33 146 15.0
2020-Jan-25 06:17 146 15.0
2020-Jan-25 06:02 146 15.0
2020-Jan-25 05:47 180 15.0
2020-Jan-25 05:31 180 14.4
2020-Jan-25 05:16 180 14.4
2020-Jan-25 05:02 180 14.4
2020-Jan-25 04:46 180 14.4
2020-Jan-25 04:31 180 14.4
2020-Jan-25 04:16 180 14.4
2020-Jan-25 04:01 180 14.4
2020-Jan-25 03:47 180 14.4
2020-Jan-25 03:31 180 14.4
2020-Jan-25 03:16 180 15.0
2020-Jan-25 03:02 180 15.0
2020-Jan-25 02:46 180 15.0
2020-Jan-25 02:31 172 15.0
2020-Jan-25 02:16 142 15.0
2020-Jan-25 02:01 158 15.6
2020-Jan-25 01:47 188 15.6
2020-Jan-25 01:31 174 15.6
2020-Jan-25 01:16 163 15.6
2020-Jan-25 01:02 167 15.6
2020-Jan-25 00:46 169 15.6
2020-Jan-25 00:31 156 16.1
2020-Jan-25 00:16 143 16.1
2020-Jan-25 00:02 185 16.1
2020-Jan-24 23:46 178 16.1
2020-Jan-24 23:33 181 16.1
2020-Jan-24 23:18 182 16.7
2020-Jan-24 23:01 192 16.1
2020-Jan-24 22:46 188 16.1
2020-Jan-24 22:32 178 16.1
2020-Jan-24 22:16 162 16.7
2020-Jan-24 22:02 185 16.7
2020-Jan-24 21:46 184 16.7
2020-Jan-24 21:31 190 16.7
2020-Jan-24 21:16 207 16.7
2020-Jan-24 21:02 188 16.7
2020-Jan-24 20:46 196 16.7
2020-Jan-24 20:31 190 16.7
2020-Jan-24 20:16 185 16.7
2020-Jan-24 20:01 184 16.7
2020-Jan-24 19:45 204 16.7
2020-Jan-24 19:31 191 16.7
2020-Jan-24 19:16 183 16.7
2020-Jan-24 19:02 182 16.7
2020-Jan-24 18:45 188 16.7
2020-Jan-24 18:30 192 16.7
2020-Jan-24 18:16 170 17.2
2020-Jan-24 18:00 183 17.2
2020-Jan-24 17:45 192 17.2
2020-Jan-24 17:30 188 17.2
2020-Jan-24 17:15 180 16.7
2020-Jan-24 17:00 177 16.1
2020-Jan-24 16:45 183 15.6
2020-Jan-24 16:32 191 15.6
2020-Jan-24 16:19 191 15.0
2020-Jan-24 16:02 191 15.0
2020-Jan-24 15:47 196 14.4
2020-Jan-24 15:32 187 14.4
2020-Jan-24 15:17 195 13.9
2020-Jan-24 15:01 029 13.9
2020-Jan-24 14:48 026 13.3
2020-Jan-24 14:31 026 13.3
2020-Jan-24 14:16 026 13.3
2020-Jan-24 14:02 026 12.8
2020-Jan-24 13:47 026 12.8
2020-Jan-24 13:33 026 12.8
2020-Jan-24 13:16 026 12.8
2020-Jan-24 13:02 026 12.8
2020-Jan-24 12:47 026 12.2
2020-Jan-24 12:32 026 12.2
2020-Jan-24 12:19 026 12.2
2020-Jan-24 12:03 026 12.2
2020-Jan-24 11:46 026 12.2
2020-Jan-24 11:31 026 11.7
2020-Jan-24 11:16 026 12.2
2020-Jan-24 11:01 026 12.8
2020-Jan-24 10:46 192 12.8
2020-Jan-24 10:31 192 12.8
2020-Jan-24 10:17 192 12.8
2020-Jan-24 10:01 192 12.8
2020-Jan-24 09:46 243 12.8
2020-Jan-24 09:31 243 12.8
2020-Jan-24 09:16 243 13.3
2020-Jan-24 09:01 243 13.3
2020-Jan-24 08:46 243 13.3
2020-Jan-24 08:32 209 13.3
2020-Jan-24 08:17 214 13.3
2020-Jan-24 08:01 327 13.3
2020-Jan-24 07:46 312 13.3
2020-Jan-24 07:30 312 13.3
2020-Jan-24 07:15 312 13.3
2020-Jan-24 07:00 097 13.3
2020-Jan-24 06:46 170 13.3
2020-Jan-24 06:31 202 13.3
2020-Jan-24 06:15 198 13.3
2020-Jan-24 06:00 289 13.3
2020-Jan-24 05:45 032 12.8
2020-Jan-24 05:31 355 12.8
2020-Jan-24 05:15 242 12.8
2020-Jan-24 05:01 013 12.2
2020-Jan-24 04:45 205 12.2
2020-Jan-24 04:31 314 12.2
2020-Jan-24 04:15 315 12.2
2020-Jan-24 04:00 202 12.2
2020-Jan-24 03:45 235 12.2
2020-Jan-24 03:30 329 11.7
2020-Jan-24 03:15 318 11.7
2020-Jan-24 03:00 360 11.7
2020-Jan-24 02:45 178 11.7
2020-Jan-24 02:30 255 11.1
2020-Jan-24 02:17 350 11.1
2020-Jan-24 02:02 186 11.1
2020-Jan-24 01:46 218 11.1
2020-Jan-24 01:32 018 11.1
2020-Jan-24 01:18 016 11.1
2020-Jan-24 01:01 005 11.1
2020-Jan-24 00:46 350 11.1
2020-Jan-24 00:34 044 10.6
2020-Jan-24 00:17 027 10.6
2020-Jan-24 00:01 283 10.6
2020-Jan-23 23:47 011 10.6
2020-Jan-23 23:32 010 10.6
2020-Jan-23 23:17 025 11.1
2020-Jan-23 23:02 338 11.1
2020-Jan-23 22:49 005 11.1
2020-Jan-23 22:31 016 11.7
2020-Jan-23 22:18 017 11.7
2020-Jan-23 22:02 015 11.7
2020-Jan-23 21:46 015 11.7
2020-Jan-23 21:32 014 11.7
2020-Jan-23 21:16 015 11.7
2020-Jan-23 21:02 015 11.1
2020-Jan-23 20:46 015 11.1
2020-Jan-23 20:31 015 10.6
2020-Jan-23 20:16 015 10.6
2020-Jan-23 20:01 017 10.6
2020-Jan-23 19:46 016 1 gusting 6 10.0
2020-Jan-23 19:31 012 0 gusting 4 10.0
2020-Jan-23 19:15 011 0 gusting 5 9.4
2020-Jan-23 19:00 019 1 gusting 4 9.4
2020-Jan-23 18:45 020 8.9
2020-Jan-23 18:30 016 8.9
2020-Jan-23 18:15 016 3 gusting 6 8.9
2020-Jan-23 18:00 011 3 gusting 6 9.4
2020-Jan-23 17:45 009 2 gusting 7 9.4
2020-Jan-23 17:30 009 0 gusting 6 8.9
2020-Jan-23 17:15 018 3 gusting 6 8.9
2020-Jan-23 17:00 028 3 gusting 7 8.3
2020-Jan-23 16:45 024 3 gusting 7 8.3
2020-Jan-23 16:30 017 5 gusting 9 8.3
2020-Jan-23 16:15 019 6 gusting 10 8.9
2020-Jan-23 16:00 024 4 gusting 8 8.3
2020-Jan-23 15:45 021 6 gusting 8 8.3
2020-Jan-23 15:33 023 5 gusting 9 8.3
2020-Jan-23 15:18 005 5 gusting 8 8.3
2020-Jan-23 15:02 017 3 gusting 6 7.8